Weather History for Lihue, HI

Change the Weather History Date:

Monday, February 25, 2013

  Actual Average Record
Temperature  
Mean Temperature 73 °F 72 °F  
Max Temperature 76 °F 78 °F 84 °F (1978)
Min Temperature 69 °F 66 °F 55 °F (1957)
Degree Days  
Heating Degree Days 0 0  
Month to date heating degree days 0 0  
Since 1 July heating degree days 0 0  
Cooling Degree Days 8 7  
Month to date cooling degree days 171 175  
Year to date cooling degree days 364 384  
Growing Degree Days 22 (Base 50)    
Moisture  
Dew Point 62 °F    
Average Humidity 69    
Maximum Humidity 78    
Minimum Humidity 60    
Precipitation  
Precipitation T in 0.12 in 3.24 in (1956)
Month to date precipitation 0.95 2.79  
Year to date precipitation 6.83 6.54  
Snow  
Snow 0.00 in - - ()
Month to date snowfall 0.0  
Since 1 July snowfall 0.0  
Snow Depth 0.00 in    
Sea Level Pressure  
Sea Level Pressure 30.15 in    
Wind  
Wind Speed 19 mph (NE)    
Max Wind Speed 25 mph    
Max Gust Speed 30 mph    
Visibility 10 miles    
Events      
T = Trace of Precipitation, MM = Missing Value Source: NWS Daily Summary

Daily Weather History Graph

Daily Weather History Graph

Search for Another Location

Airport:

Trip Planner

Search our weather history database for the weather conditions in past years. The results will help you decide how hot, cold, wet, or windy it might be!

Date:

Astronomy

Feb. 25, 2013 Rise Set
Actual Time 7:01 AM HST 6:39 PM HST
Civil Twilight 6:38 AM HST 7:02 PM HST
Nautical Twilight 6:12 AM HST 7:28 PM HST
Astronomical Twilight 5:46 AM HST 7:54 PM HST
Moon 6:55 PM HST (2/25) 6:43 AM HST (2/25)
Length of Visible Light 12h 23m
Length of Day
11h 38m
Full, 100% of the Moon is Illuminated
Feb 25
Full
Mar 4
Last Quarter
Mar 11
New
Mar 19
First Quarter
Mar 26
Full

Hourly Weather History & Observations

Time (HST) Temp. Dew Point Humidity Pressure Visibility Wind Dir Wind Speed Gust Speed Precip Events Conditions
12:26 AM 69.8 °F 62.6 °F 78% 30.17 in 10.0 mi NE 20.7 mph - N/A   Scattered Clouds
12:48 AM 69.8 °F 62.6 °F 78% 30.17 in 10.0 mi NE 17.3 mph - N/A   Mostly Cloudy
12:53 AM 70.0 °F 62.1 °F 76% 30.17 in 10.0 mi NE 16.1 mph - N/A   Mostly Cloudy
1:32 AM 69.8 °F 62.6 °F 78% 30.16 in 10.0 mi ENE 18.4 mph - N/A   Mostly Cloudy
1:53 AM 70.0 °F 61.0 °F 73% 30.15 in 10.0 mi ENE 17.3 mph - N/A   Mostly Cloudy
2:45 AM 69.8 °F 60.8 °F 73% 30.14 in 10.0 mi ENE 17.3 mph - N/A   Overcast
2:53 AM 70.0 °F 62.1 °F 76% 30.13 in 10.0 mi ENE 18.4 mph - N/A   Overcast
3:14 AM 69.8 °F 60.8 °F 73% 30.13 in 10.0 mi ENE 18.4 mph - N/A   Mostly Cloudy
3:53 AM 69.1 °F 60.1 °F 73% 30.12 in 10.0 mi ENE 19.6 mph - N/A   Partly Cloudy
4:53 AM 70.0 °F 61.0 °F 73% 30.12 in 10.0 mi NE 17.3 mph - N/A   Overcast
5:53 AM 69.1 °F 63.0 °F 81% 30.12 in 10.0 mi NE 19.6 mph - N/A   Overcast
6:10 AM 69.8 °F 60.8 °F 73% 30.13 in 10.0 mi ENE 19.6 mph - N/A   Overcast
6:53 AM 70.0 °F 60.1 °F 71% 30.13 in 10.0 mi ENE 23.0 mph 27.6 mph N/A   Overcast
7:50 AM 69.8 °F 59.0 °F 68% 30.16 in 10.0 mi NE 24.2 mph - N/A   Overcast
7:53 AM 70.0 °F 59.0 °F 68% 30.16 in 10.0 mi NE 23.0 mph - N/A   Overcast
8:21 AM 71.6 °F 59.0 °F 64% 30.17 in 10.0 mi NE 23.0 mph 29.9 mph N/A   Overcast
8:42 AM 71.6 °F 60.8 °F 69% 30.18 in 10.0 mi NE 23.0 mph 28.8 mph N/A   Mostly Cloudy
8:53 AM 72.0 °F 60.1 °F 66% 30.18 in 10.0 mi NE 20.7 mph - N/A   Overcast
9:07 AM 71.6 °F 59.0 °F 64% 30.18 in 10.0 mi NE 21.9 mph - N/A   Scattered Clouds
9:53 AM 73.0 °F 61.0 °F 66% 30.19 in 10.0 mi NE 20.7 mph - N/A   Clear
10:53 AM 73.9 °F 62.1 °F 66% 30.19 in 10.0 mi NE 21.9 mph - N/A   Scattered Clouds
11:53 AM 75.0 °F 61.0 °F 62% 30.17 in 10.0 mi NE 20.7 mph - N/A   Clear
12:53 PM 75.0 °F 63.0 °F 66% 30.15 in 10.0 mi NE 19.6 mph - N/A   Partly Cloudy
1:53 PM 75.0 °F 63.0 °F 66% 30.13 in 10.0 mi NE 20.7 mph - N/A   Clear
2:53 PM 73.9 °F 64.0 °F 71% 30.11 in 10.0 mi NE 19.6 mph 26.5 mph N/A   Mostly Cloudy
3:53 PM 72.0 °F 62.1 °F 71% 30.11 in 10.0 mi NE 19.6 mph - N/A   Mostly Cloudy
4:53 PM 73.9 °F 63.0 °F 68% 30.12 in 10.0 mi NE 18.4 mph - N/A   Mostly Cloudy
5:53 PM 71.1 °F 62.1 °F 73% 30.13 in 10.0 mi NE 19.6 mph 23.0 mph N/A   Scattered Clouds
6:53 PM 70.0 °F 61.0 °F 73% 30.14 in 10.0 mi NE 18.4 mph - N/A   Clear
7:53 PM 71.1 °F 62.1 °F 73% 30.16 in 10.0 mi NE 16.1 mph - N/A   Scattered Clouds
8:53 PM 71.1 °F 63.0 °F 75% 30.18 in 10.0 mi NE 17.3 mph - N/A   Mostly Cloudy
9:53 PM 71.1 °F 63.0 °F 75% 30.19 in 10.0 mi NE 18.4 mph 24.2 mph 0.00 in   Mostly Cloudy
10:53 PM 71.1 °F 63.0 °F 75% 30.19 in 10.0 mi ENE 17.3 mph - N/A   Scattered Clouds
11:53 PM 71.1 °F 63.0 °F 75% 30.19 in 10.0 mi ENE 17.3 mph - N/A   Scattered Clouds